Weather in Lozovskoye

Russia / Novosibirsk Oblast     54°06′03″N   77°37′37″E
temp.,
°C
wind,
m/s
gust,
m/s
humid.,
%
clouds,
%
prec.,
mm/h
press.,
hPa
HPBL,
m
1 march, mon
mon101:00−7ese5995100 0.7 1012344
04:00−5e4696100 1.9 1008226
07:00−8ne339796 2.3 100737
10:00−7ne239699 0.3 100783
13:00−4ne239799 1.3 1007133
16:00−2nne2298100 2.0 1007120
19:00−4n3497100 3.2 1008115
22:00−8nnw4596100 0.6 1009130
2 march, tue
tue201:00−13nw349688 0.7 101249
04:00−16nw349794 0.1 101467
07:00−19wnw339894 0.1 101627
10:00−19w239764 0.0 101728
13:00−15w239164 0.0 1017232
16:00−13sw239097 0.0 1016317
19:00−14w119697 0.2 101620
22:00−15ssw119698 0.1 101620
3 march, wed
wed301:00−15sw229689 0.2 101620
04:00−15wsw229677 0.1 101635
07:00−15sw229686 0.2 101637
10:00−14sw359682 0.1 1017151
13:00−12sw579383 0.1 1018386
16:00−13ssw5892100 0.0 1018392
19:00−15s51193100 0.0 1019354
22:00−12s61292100 0.0 1018413
4 march, thu
thu401:00−10ssw71293100 0.3 1017483
04:00−9ssw71394100 0.6 1015472
07:00−8ssw71393100 0.9 1015460
10:00−6ssw81493100 0.3 1013529
13:00−4ssw91492100 0.6 1013658
16:00−2ssw91493100 0.2 1011776
19:00−2ssw91686100 0.4 1011819
22:00−2ssw91686100 0.4 1009759
5 march, fri
fri501:00−3ssw81686100 0.4 1008585
04:00−3ssw81396100 1.3 1006537
07:00−3ssw71393100 2.3 1006465
10:00−2w7129599 0.3 1008626
13:00−6w8128793 0.3 1012653
16:00−7wsw711840 0.0 1017628
19:00−8ssw8158722 0.0 1018568
22:00−6sw101883100 0.0 1016893